TimePST,TemperatureF,Dew PointF,Humidity,Sea Level PressureIn,VisibilityMPH,Wind Direction,Wind SpeedMPH,Gust SpeedMPH,PrecipitationIn,Events,Conditions,WindDirDegrees,DateUTC
12:51 AM,60.1,14.0,16,30.13,10.0,North,4.6,-,N/A,,Clear,10,2013-01-20 08:51:00
1:51 AM,54.0,21.0,28,30.13,10.0,ENE,4.6,-,N/A,,Clear,70,2013-01-20 09:51:00
2:51 AM,55.0,17.1,23,30.12,10.0,NNE,3.5,-,N/A,,Clear,30,2013-01-20 10:51:00
3:51 AM,54.0,18.0,24,30.12,10.0,East,5.8,-,N/A,,Clear,80,2013-01-20 11:51:00
4:51 AM,51.1,19.0,28,30.11,10.0,NNE,3.5,-,N/A,,Clear,30,2013-01-20 12:51:00
5:51 AM,50.0,19.9,31,30.11,10.0,East,5.8,-,N/A,,Clear,80,2013-01-20 13:51:00
6:51 AM,50.0,19.0,29,30.12,10.0,East,4.6,-,N/A,,Clear,80,2013-01-20 14:51:00
7:51 AM,53.1,21.0,29,30.13,10.0,NE,3.5,-,N/A,,Clear,50,2013-01-20 15:51:00
8:51 AM,62.1,23.0,22,30.14,10.0,ENE,4.6,-,N/A,,Clear,70,2013-01-20 16:51:00
9:51 AM,70.0,19.0,14,30.14,10.0,ENE,4.6,-,N/A,,Clear,60,2013-01-20 17:51:00
10:51 AM,73.9,21.0,14,30.12,10.0,ENE,4.6,-,N/A,,Clear,70,2013-01-20 18:51:00
11:51 AM,75.9,18.0,11,30.08,10.0,ESE,5.8,-,N/A,,Clear,110,2013-01-20 19:51:00
12:51 PM,79.0,17.1,10,30.04,10.0,Calm,Calm,-,N/A,,Clear,0,2013-01-20 20:51:00
1:51 PM,77.0,21.9,13,30.02,10.0,SW,6.9,-,N/A,,Clear,220,2013-01-20 21:51:00
3:51 PM,73.9,18.0,12,30.02,10.0,West,5.8,-,N/A,,Clear,270,2013-01-20 23:51:00
4:51 PM,66.9,21.9,18,30.03,10.0,West,8.1,-,N/A,,Clear,270,2013-01-21 00:51:00
5:51 PM,63.0,33.1,33,30.04,10.0,West,3.5,-,N/A,,Clear,260,2013-01-21 01:51:00
6:51 PM,59.0,36.0,42,30.05,10.0,Calm,Calm,-,N/A,,Clear,0,2013-01-21 02:51:00
7:51 PM,55.0,42.1,62,30.06,10.0,Calm,Calm,-,N/A,,Clear,0,2013-01-21 03:51:00
8:51 PM,55.0,43.0,64,30.06,10.0,Calm,Calm,-,N/A,,Clear,0,2013-01-21 04:51:00
9:51 PM,54.0,41.0,62,30.08,10.0,ENE,3.5,-,N/A,,Clear,60,2013-01-21 05:51:00
10:51 PM,55.0,32.0,42,30.08,10.0,NE,4.6,-,N/A,,Clear,40,2013-01-21 06:51:00
11:51 PM,55.0,27.0,34,30.06,10.0,NNE,3.5,-,N/A,,Clear,20,2013-01-21 07:51:00